Location: State Line Observation Field
(36.5320°N, 77.5360°W)
Time: 17:09:33
(UTC-04:00)

Envisat - Pass Details

Date: 14 March 2021
Orbit: 764 x 766 km, 98.1° (Epoch: 16 April)

Event Time Altitude Azimuth Distance (km) Brightness Sun altitude
Rises 05:53:05 0° 27° (NNE) 3,236 6.8 -18.6°
Reaches altitude 10° 05:55:47 10° 40° (NE) 2,305 6.2 -18.1°
Maximum altitude 05:59:57 25° 95° (E) 1,502 5.3 -17.3°
Drops below altitude 10° 06:04:04 10° 150° (SSE) 2,292 5.7 -16.5°
Sets 06:06:44 0° 163° (SSE) 3,213 6.3 -15.9°
